Location: Großkötz
(48.4064°N, 10.2750°E)
Time: 04:48:00
(UTC+00:00)

Daily predictions for brighter satellites

Satellite Brightness Start Highest point End
(mag) Time Altitude Azimuth Time Altitude Azimuth Time Altitude Azimuth
USA 59 Rocket 3.0 03:08:36 11° ESE 03:08:36 11° ESE 03:08:52 10° ESE
SL-16 R/B 3.7 03:19:10 31° NE 03:19:28 31° NE 03:24:27 10° ESE
Cosmos 2082 Rocket 3.3 03:23:08 40° ENE 03:23:08 40° ENE 03:27:04 10° NE
USA 234 3.9 03:23:22 10° ENE 03:28:36 45° NNE 03:28:36 45° NNE
Cosmos 1980 Rocket 4.4 03:44:55 14° S 03:44:55 14° S 03:45:38 10° S
Cosmos 2369 4.4 03:51:16 45° SSE 03:51:16 45° SSE 03:55:05 10° SSE
NOSS 3-1 (C) 3.9 03:52:30 62° NW 03:54:00 87° NE 04:02:49 10° SE
Cosmos 841 Rocket 3.8 04:00:24 55° SSE 04:01:20 66° ESE 04:06:33 10° NNE
COSMOS 2455 3.0 04:07:00 56° SSW 04:07:00 56° SSW 04:12:03 10° SSE
Cosmos 2360 Rocket 3.4 04:09:27 22° N 04:12:25 38° NE 04:17:38 10° ESE
Cosmos 2333 Rocket 2.8 04:11:00 31° N 04:13:32 53° NE 04:19:09 10° SE
Cosmos 489 Rocket 4.5 04:08:39 10° SSW 04:14:56 80° ESE 04:21:14 10° NNE
ATLAS 3B R/B 4.2 04:14:24 22° NNW 04:18:02 30° NNE 04:24:42 10° ENE
Nadezhda 4 Rocket 3.9 04:11:56 10° S 04:18:16 87° W 04:24:34 10° N
Cosmos 1892 Rocket 4.1 04:18:51 10° S 04:23:08 59° E 04:27:28 10° NNE
Cosmos-2242 4.0 04:24:05 19° N 04:26:50 43° ENE 04:30:51 10° SSE
Cosmos 1898 Rocket 4.0 04:29:28 42° SW 04:29:28 42° SW 04:33:24 10° S
Cosmos 2219 Rocket 3.6 04:25:49 15° N 04:29:51 33° NE 04:34:54 10° ESE
COSMO-SKYMED 1 2.7 04:27:10 10° SSE 04:31:14 65° ENE 04:32:40 38° N
IRS-1D 3.5 04:28:40 10° NNE 04:33:42 83° ESE 04:38:47 10° SSW
Meteor 2-20 4.4 04:29:12 10° N 04:35:21 82° E 04:41:26 10° S
Cosmos 2322 Rocket 2.7 04:32:26 23° NNW 04:35:59 59° ENE 04:41:34 10° SE
SL-24 R/B 4.5 04:32:09 10° NNE 04:37:35 80° E 04:42:16 10° S
Orbus 7S? 3.7 04:48:21 35° NE 04:48:21 35° NE 04:50:36 10° E
Cosmos 1937 Rocket 3.7 04:49:25 43° W 04:49:40 43° WSW 04:54:30 10° S
Cosmos 858 Rocket 4.5 04:49:23 40° NW 04:51:00 59° WSW 04:56:05 10° S
BREEZE M DEB (TANK) 4.2 04:50:05 11° S 04:51:37 17° SE 04:53:52 10° E
USA 59 Rocket 1.6 04:54:18 21° SW 04:54:18 21° SW 04:57:09 10° S
Meteor 2-3 Rocket 3.6 04:48:24 10° SSW 04:54:07 70° WNW 04:59:48 10° N
BREEZE-M DEB (TANK) 3.6 04:55:04 28° ESE 04:55:04 28° ESE 04:56:10 10° ESE
Meteor 1-26 Rocket 4.1 04:49:42 10° NNW 04:55:15 89° WSW 05:00:58 10° S
Cosmos 1484 Rocket 3.6 04:52:35 10° NNE 04:55:53 44° E 04:59:07 10° S
Meteor 2-20 Rocket 4.3 04:51:19 10° N 04:57:07 85° E 05:02:50 10° S
Cosmos 2058 Rocket 2.9 04:54:41 18° NNW 04:57:58 83° W 05:02:22 10° S
SKYMED 2 3.8 04:55:31 10° S 04:59:41 44° W 05:00:14 42° WNW
COSMOS 2406 3.2 04:55:16 14° SW 05:00:08 58° WNW 05:05:45 10° NNE
NOSS 3-1 (A) 4.0 04:57:15 24° NW 05:02:03 80° SW 05:10:55 10° SSE
SL-16 R/B 2.3 05:01:03 28° NW 05:03:52 55° WSW 05:09:21 10° S
Cosmos 2082 Rocket 2.8 05:05:01 31° WNW 05:05:56 32° NW 05:10:59 10° NNE
COSMOS 2428 4.5 05:02:01 10° NNW 05:06:45 26° NE 05:11:28 10° E
CZ-4 R/B 3.7 05:02:35 10° N 05:07:08 56° WNW 05:11:38 10° SSW
SeaSat 1 4.2 05:05:28 10° N 05:07:30 16° NNW 05:07:30 16° NNW
Cosmos 1627 Rocket 4.4 05:02:49 10° SSW 05:08:54 69° WNW 05:15:03 10° N
USA 234 3.9 05:05:48 10° ENE 05:11:55 43° N 05:15:57 21° NW
BREEZE-M DEB (TANK) 2.5 05:12:02 50° W 05:12:39 80° NNW 05:14:54 10° ENE
Okean 1 2.9 05:11:24 26° NNW 05:13:16 67° W 05:16:47 10° S
Helios 1A Rocket 2.8 05:12:28 10° S 05:15:38 39° W 05:15:55 39° W
Cosmos 1814 Rocket 4.2 05:11:20 10° SSW 05:16:33 74° ESE 05:21:51 10° NNE
NOAA 12 4.2 05:12:21 10° N 05:17:26 49° WNW 05:22:29 10° SW
DMSP B5D1-3 4.4 05:14:09 10° SSE 05:19:16 80° WSW 05:24:24 10° NNW
IRIDIUM 114 4.5 05:15:04 10° S 05:20:17 79° E 05:25:31 10° N
CBERS-1 4.4 05:16:24 10° NNE 05:21:30 69° ESE 05:26:33 10° S
Cosmos 2285 Rocket 4.0 05:17:25 10° NNW 05:23:50 85° WSW 05:30:15 10° SSE
BREEZE-M DEB (TANK) 2.7 05:23:26 34° WNW 05:24:29 72° N 05:29:40 10° E
BREEZE-M DEB (TANK) 3.1 05:24:35 23° WSW 05:26:21 50° S 05:33:08 10° ESE
Cosmos 2278 4.1 05:24:16 19° NW 05:27:50 41° WSW 05:33:05 10° S
IRIDIUM 103 4.3 05:24:13 10° S 05:29:26 88° W 05:34:42 10° N
SL-4 R/B 1.3 05:28:33 31° WNW 05:29:59 83° SSW 05:33:09 10° ESE
Cosmos 2151 3.9 05:27:27 10° SSE 05:31:23 49° E 05:35:21 10° NNE
Cosmos 1758 Rocket 3.6 05:28:45 10° S 05:33:10 87° E 05:37:34 10° N
Cosmos 2026 Rocket 4.2 05:28:25 10° SW 05:34:09 44° WNW 05:39:59 10° N
NOSS 8 (A) 4.1 05:33:11 28° NW 05:34:32 63° SW 05:37:47 10° SSE
CZ-2D R/B 4.4 05:32:09 10° NNE 05:35:10 37° E 05:38:08 10° SSE
Cosmos 2221 2.7 05:31:31 10° N 05:35:39 69° ENE 05:39:46 10° SSE
Thor Agena Rocket 3.9 05:34:37 10° NNE 05:39:41 69° ESE 05:44:40 10° S
Cosmos 1238 Rocket 4.3 05:40:06 10° NNE 05:42:32 24° ENE 05:44:56 10° SE
Cosmos 405 Rocket 2.2 05:39:42 10° SSW 05:42:55 58° WNW 05:46:11 10° N
Cosmos 1707 3.0 05:43:11 10° N 05:46:16 52° ENE 05:49:20 10° SSE
IRIDIUM 106 4.3 05:42:38 10° SSW 05:47:47 62° W 05:52:59 10° N
Cosmos 158 Rocket 3.9 05:43:21 10° SSW 05:48:40 75° WNW 05:53:55 10° NNE
KORONAS-FOTON 3.8 05:50:30 10° N 05:53:53 69° E 05:57:14 10° SSE
Cosmos 1626 Rocket 3.8 05:51:57 10° SSW 05:56:13 47° WNW 06:00:29 10° N
Cosmos 2360 Rocket 2.6 05:51:12 10° NW 05:56:27 42° WSW 06:01:40 10° S
S3M 4.1 05:50:17 10° N 05:56:32 84° E 06:02:39 10° S
Cosmos 2333 Rocket 3.1 05:53:03 12° NW 05:57:32 29° WSW 06:02:23 10° SSW
Cosmos 1553 Rocket 4.3 05:51:54 10° NNW 05:58:01 50° W 06:04:08 10° SSW
SMAP 3.0 05:55:21 10° NNE 06:00:02 81° WNW 06:04:42 10° SSW
Cosmos 1833 4.2 05:55:03 10° SSW 06:00:41 76° WNW 06:06:26 10° NNE
SL-08 R/B 4.1 05:58:26 10° SE 06:02:55 53° ENE 06:07:29 10° N
Cosmos-2242 4.3 06:00:32 10° NW 06:03:33 19° W 06:06:32 10° SW
Cosmos 1842 3.3 06:01:13 10° N 06:04:32 63° E 06:07:48 10° SSE
Landsat 7 3.8 06:00:39 10° NNE 06:05:20 88° W 06:10:00 10° SSW
COSMO-SKYMED 1 4.2 06:04:55 10° WSW 06:06:59 13° W 06:08:59 10° WNW
Cosmos 2237 Rocket 3.7 06:02:20 10° NNW 06:07:16 30° NE 06:12:11 10° ESE
Cosmos 1125 Rocket 3.5 06:03:11 10° NNW 06:08:27 74° WSW 06:13:38 10° SSE
ATLAS 3B R/B 3.3 06:02:27 10° NW 06:10:19 65° NE 06:17:47 10° SE
Meteor 1-10 Rocket 4.4 06:04:48 10° NNW 06:10:43 79° W 06:16:39 10° S
BREEZE-M DEB (TANK) 4.2 06:09:24 10° SW 06:11:37 36° SSE 06:14:43 10° E
Cosmos 2219 Rocket 2.5 06:08:33 10° NW 06:14:01 50° WSW 06:19:25 10° S
Meteor 1-19 Rocket 4.4 06:10:20 10° NNW 06:16:05 67° W 06:21:57 10° S
Cosmos 2322 Rocket 3.3 06:15:01 10° NW 06:19:36 26° WSW 06:24:09 10° SSW
BREEZE-M DEB (TANK) 3.9 06:05:35 10° W 06:21:36 83° N 06:25:38 10° E
Okean 1-7 Rocket 3.6 06:21:29 10° SSW 06:25:57 63° WNW 06:30:24 10° N
